Overview Statistics Trail Chart Weather Telemetry Raw packets
 

This is the latest recevied weather packets stored in our database for station/object N6ZHV-13. If no packets are shown the sender has not sent any weather packets the latest 10 day(s).

<< 45 46 47 48 49 50 51 >>
Time Temp. Humidity Pressure Rain* Wind** Luminosity Snow
1788383525 26.67° C 51% 1010.7 hPa 0 mm - - -
1788383225 26.67° C 46% 1010.8 hPa 0 mm - - -
1788382925 26.67° C 43% 1010.8 hPa 0 mm - - -
1788382625 26.67° C 44% 1010.9 hPa 0 mm - - -
1788382325 26.67° C 43% 1010.9 hPa 0 mm - - -
1788382025 26.67° C 42% 1011 hPa 0 mm - - -
1788381725 26.67° C 42% 1011.1 hPa 0 mm - - -
1788381425 27.22° C 42% 1011.1 hPa 0 mm - - -
1788381125 26.67° C 42% 1011.2 hPa 0 mm - - -
1788380825 26.67° C 42% 1011.2 hPa 0 mm - - -
1788380525 26.67° C 43% 1011.3 hPa 0 mm - - -
1788380225 26.67° C 45% 1011.3 hPa 0 mm - - -
1788379925 26.11° C 43% 1011.3 hPa 0 mm - - -
1788379625 26.11° C 42% 1011.4 hPa 0 mm - - -
1788379325 26.67° C 43% 1011.5 hPa 0 mm - - -
1788379025 26.67° C 43% 1011.5 hPa 0 mm - - -
1788378725 26.11° C 42% 1011.6 hPa 0 mm - - -
1788378425 26.67° C 44% 1011.7 hPa 0 mm - - -
1788378125 26.11° C 45% 1011.7 hPa 0 mm - - -
1788377825 26.11° C 46% 1011.7 hPa 0 mm - - -
1788377525 25.56° C 46% 1011.6 hPa 0 mm - - -
1788377225 25.56° C 47% 1011.8 hPa 0 mm - - -
1788376925 25.56° C 50% 1011.8 hPa 0 mm - - -
1788376625 25° C 51% 1012 hPa 0 mm - - -
1788376325 25° C 52% 1011.8 hPa 0 mm - - -

* Rain latest hour (hover to see other rain measurements)
** Current wind speed in m/s (hover to see current wind gust speed)